Find OneWeb SL0033

NORAD ID: 45142 Int'l Des: 2020-008 Owner: ONEWEB Country: UK Constellation: oneweb operational
LEOCIRCULARPOLARONEWEB_TYPE

当前视图

正在加载3D地球...

About OneWeb SL0033

OneWeb SL0033 (NORAD 45142) is a oneweb constellation satellite launched Feb 6, 2020 by ONEWEB of UK. It operates in LEO, CIRCULAR, POLAR, ONEWEB_TYPE orbit with a mass of 148.00 kg.

关于 OneWeb SL0033

正在加载描述...

即将过境

Passes for default location (London). Set your location on the main map for personalized predictions.

高度历史

Loading altitude history...

两行轨道根数

1 45142U 20008M 26168.66358803 .00005944 00000-0 16965-1 0 9998
2 45142 87.8829 36.1856 0001862 97.0919 263.0420 13.10434747308272
Epoch: Jun 17, 2026 • Age: 10 hours

当前状态

高度 1223.2 km
速度 7.24 km/s
星下点 10.51°N, 79.87°W
发射日期 Feb 6, 2020
运行时间 6.3 years
类型 internet

技术详情

分类 Payload
质量 148.00 kg
干质量 140.00 kg
总质量 148.00 kg
长度 1.30 m
直径 1.00 m
跨度 5.00 m
形状 Trapezoid+2 pan
制造商 ONEWUS
平台类型 ARROW
阶段状态 In Orbit
所有者/国家 ONEWEB/UK

Most Searched